User: anonymous   Login
Location: Caltech
(34.1382°N, 118.1253°W)
Time: 10:44:01
(UTC-08:00)
Language:

Hamsat - Orbit

View from above orbital plane
View from above orbital plane
View from above satellite
View from above satellite

Ground track
Ground track

The orbit data is extracted from the following two-line orbital elements,

1 28650U 05017B   14327.15937081  .00003051  00000-0  35127-3 0  9120
2 28650 097.5645 324.2737 0024580 357.3272 002.7809 14.86221467516835
Epoch (UTC): 23 November 2014 03:49:29
Eccentricity: 0.0024580
inclination: 97.5645°
perigee height: 592 km
apogee height: 627 km
right ascension of ascending node: 324.2737°
argument of perigee: 357.3272°
revolutions per day: 14.86221467
mean anomaly at epoch: 2.7809°
orbit number at epoch: 51683

The dashed part of the orbit path shows where the satellite is in the earth's shadow,  

DLR